Hourly Data Report for February 01, 2021

KUGAARUK CLIMATE
NUNAVUT
Current Station Operator: ECCC - MSC

68°32'15.060" N
89°47'47.020" W
15.80 m
2303094
71407
NBB

Download Data

Hourly Data (February 2021)
Hourly Data Report for February 1, 2021
TIME
LST
Temp Definition
°C
Dew Point Definition
°C
Rel Hum Definition
%
Precip. Amount Definition
mm

Wind Dir Definition
10's deg

Wind Spd Definition
km/h
Visibility Definition
km
Stn Press Definition
kPa
Hmdx Definition


Wind Chill Definition


Weather Definition


00:00 -33.2 -36.7 71 0.0 23 29   102.78   -50 LegendNANA
01:00 -33.1 -36.5 72 0.0 23 28   102.82   -49 LegendNANA
02:00 -33.5 -37.0 71 0.0 22 33   102.79   -51 LegendNANA
03:00 -33.1 -36.6 71 0.0 23 38   102.76   -51 LegendNANA
04:00 -32.3 -35.7 72 0.0 22 36   102.81   -50 LegendNANA
05:00 -32.1 -35.4 72 0.0 24 30   102.83   -48 LegendNANA
06:00 -31.8 -35.1 73 0.0 23 30   102.81   -48 LegendNANA
07:00 -32.4 -35.7 72 0.0 23 30   102.80   -49 LegendNANA
08:00 -32.2 -35.6 72 0.0 22 33   102.80   -49 LegendNANA
09:00 -32.1 -35.4 72 0.0 24 33   102.75   -49 LegendNANA
10:00 -32.3 -35.7 72 0.0 24 33   102.79   -49 LegendNANA
11:00 -32.5 -35.9 72 0.0 25 27   102.82   -48 LegendNANA
12:00 -32.7 -36.1 72 0.0 23 24   102.84   -48 LegendNANA
13:00 -33.0 -36.4 71 0.0 24 20   102.84   -47 LegendNANA
14:00 -33.1 -36.5 72 0.0 24 27   102.85   -49 LegendNANA
15:00 -32.9 -36.3 72 0.0 24 23   102.88   -48 LegendNANA
16:00 -32.8 -36.2 72 0.0 24 24   102.88   -48 LegendNANA
17:00 -32.9 -36.3 72 0.0 24 31   102.83   -50 LegendNANA
18:00 -33.0 -36.5 71 0.0 23 29   102.83   -49 LegendNANA
19:00 -33.1 -36.6 71 0.0 23 25   102.80   -48 LegendNANA
20:00 -32.5 -36.1 70 0.0 23 30   102.77   -49 LegendNANA
21:00 -32.9 -36.4 71 0.0 23 27   102.77   -49 LegendNANA
22:00 -32.6 -36.2 71 0.0 23 22   102.75   -47 LegendNANA
23:00 -32.5 -36.0 70 0.0 24 20   102.77   -46 LegendNANA

Notes on Data Quality.

Legend

  • E = Estimated
  • M = Missing
  • NA = Not Available*
  • [empty] = Indicates an unobserved value
Date modified: